Location: Plymouth
(43.7490°N, 87.9770°W)
Time: 09:17:07
(UTC-06:00)

Daily predictions for brighter satellites

Satellite Brightness Start Highest point End
(mag) Time Altitude Azimuth Time Altitude Azimuth Time Altitude Azimuth
Cosmos 2278 Rocket 2.5 17:12:10 10° NNW 17:17:51 77° WSW 17:23:31 10° SSE
Cosmos 1455 3.6 17:17:17 10° NNE 17:19:58 18° ENE 17:22:38 10° ESE
Cosmos 1805 Rocket 4.4 17:18:47 10° SSE 17:22:41 31° E 17:26:36 10° NNE
SKYMED 2 4.4 17:21:27 10° NNE 17:25:21 31° E 17:29:13 10° SSE
Cosmos 1328 3.9 17:21:49 10° S 17:25:45 82° W 17:29:43 10° N
Cosmos 1500 Rocket 4.0 17:24:52 10° SSW 17:29:10 65° W 17:33:33 10° N
Thor Agena Rocket 3.6 17:24:31 10° NNE 17:29:46 72° ESE 17:34:54 10° S
Sich 1 4.1 17:29:50 10° SE 17:33:31 26° E 17:37:12 10° NNE
NOSS 0 Rocket 4.4 17:27:44 10° SW 17:33:56 66° WNW 17:40:09 10° NNE
SPOT 3 Rocket 3.8 17:30:34 10° S 17:35:43 78° WSW 17:40:56 10° NNW
MSX 3.9 17:30:38 10° SSE 17:36:21 88° WSW 17:42:08 10° NNW
Cosmos 1703 3.7 17:33:06 10° SSE 17:36:44 39° E 17:40:24 10° NNE
Coronas F rocket 3.3 17:37:31 10° ESE 17:37:55 11° E 17:37:55 11° E
Meteor 2-10 4.0 17:34:57 10° N 17:40:06 85° ENE 17:45:24 10° S
Cosmos 1300 3.5 17:36:36 10° NNW 17:40:22 56° W 17:44:08 10° S
Cosmos 2237 Rocket 2.7 17:36:52 10° SW 17:42:27 62° WNW 17:48:04 10° NNE
Timation 1 Rocket 4.4 17:36:24 10° NNW 17:42:28 89° WSW 17:48:29 10° SSE
Cosmos 2369 Rocket 3.6 17:40:26 10° N 17:44:10 18° NE 17:47:04 12° E
Cosmos 1633 Rocket 3.8 17:41:28 10° SSE 17:45:18 30° E 17:49:09 10° NNE
SJ-6B 4.0 17:41:58 10° ESE 17:45:19 25° ENE 17:48:42 10° NNE
CZ-4 R/B 3.3 17:45:46 10° SSW 17:49:18 33° W 17:52:53 10° NNW
SL-16 R/B 2.2 17:46:00 10° SSW 17:51:37 71° ESE 17:57:16 10° NNE
Cosmos 540 Rocket 4.4 17:47:31 10° SW 17:52:31 50° WNW 17:57:34 10° N
Orbus 7S? 4.5 17:49:03 10° NW 17:52:46 46° NE 18:00:46 10° ESE
Lacrosse 5 3.6 17:49:48 10° NW 17:53:17 18° N 17:56:21 11° NE
Aureole 2 Rocket 3.8 17:53:00 10° SW 17:56:44 47° WNW 18:00:46 10° N
Cosmos 773 Rocket 4.2 17:57:28 10° S 18:02:23 47° ESE 18:07:22 10° NNE
USA 215 3.5 17:56:42 11° E 18:02:51 51° NNE 18:09:08 10° NW
ALOS 3.2 17:59:22 10° ESE 18:03:10 25° ENE 18:06:58 10° NNE
Cosmos 2151 4.3 17:59:55 10° SSW 18:03:53 41° WNW 18:07:53 10° N
Cosmos 2297 4.1 17:58:28 10° NNW 18:04:09 69° WSW 18:09:50 10° SSE
Cosmos 1484 Rocket 3.4 18:00:42 10° S 18:04:37 63° W 18:08:37 10° NNW
Meteor 1-28 Rocket 3.2 18:01:14 10° NNE 18:04:55 58° E 18:08:35 10° S
Abrixas 3.3 18:02:19 10° W 18:05:06 38° NNW 18:06:25 24° NE
Cosmos 1862 Rocket 4.5 18:04:07 10° NNE 18:07:48 25° ENE 18:11:24 10° SE
Cosmos 2084 Rocket 4.4 18:05:43 10° NNW 18:08:48 23° NE 18:09:20 22° NE
Cosmos 1340 Rocket 3.6 18:06:34 10° SSW 18:10:25 53° WNW 18:14:16 10° N
Cosmos 1707 Rocket 3.5 18:06:05 10° N 18:10:26 89° NW 18:14:48 10° S
METEOR-M 4.1 18:05:26 10° SSE 18:10:40 58° ENE 18:15:56 10° N
Cosmos 292 Rocket 4.4 18:07:56 10° SSE 18:12:10 33° ESE 18:14:24 22° NE
FENGYUN 3A 4.2 18:08:09 10° SE 18:12:55 34° ENE 18:17:42 10° N
COSMO-SKYMED 1 2.7 18:09:10 10° N 18:13:31 79° WNW 18:17:51 10° SSW
NOAA 12 4.0 18:10:19 10° SSE 18:15:31 69° ENE 18:20:47 10° N
Cosmos 1666 Rocket 3.5 18:17:53 10° S 18:22:14 88° W 18:26:40 10° N
Cosmos 1869 3.3 18:19:25 10° N 18:23:26 60° E 18:27:25 10° SSE
Lacrosse 4 Rocket 1.2 18:23:53 10° NNW 18:27:58 89° WSW 18:32:01 10° SSE
ATLAS 5 CENTAUR R/B 3.5 18:24:00 10° NNW 18:28:34 23° NE 18:29:30 22° NE
Cosmos 1943 4.2 18:24:24 10° SSE 18:28:35 25° ESE 18:28:35 25° ESE
Cosmos 1626 2.8 18:26:09 10° SSW 18:29:49 56° W 18:33:32 10° N
TIMED 4.5 18:27:51 10° NNW 18:32:16 87° WSW 18:36:38 10° SSE
Cosmos 1933 Rocket 3.8 18:29:33 10° SSE 18:33:48 46° E 18:35:25 32° NE
CENTAUR R/B 4.5 18:30:21 10° WNW 18:35:13 21° NNW 18:40:33 10° NNE
Blok-2BL 3.1 18:31:56 10° NNW 18:35:09 66° NE 18:35:09 66° NE
Resurs 1-3 4.2 18:36:48 35° NE 18:36:48 35° NE 18:40:12 10° N
Resurs 01 Rocket 1.8 18:34:52 14° SE 18:38:32 48° ENE 18:42:49 10° N
H-2A ROCKET BODY 4.3 18:17:16 10° WSW 18:40:12 34° SSW 18:45:25 14° SE
Cosmos 1184 Rocket 3.6 18:37:09 10° SSW 18:40:24 51° WNW 18:43:00 15° N
SL-19 R/B 4.2 18:36:38 10° SSE 18:42:22 70° ENE 18:47:56 10° NNW
Cosmos 1943 Rocket 3.5 18:41:23 10° N 18:44:33 22° NNE 18:44:33 22° NNE
USA 229 DEB 3.6 18:40:31 10° SSW 18:47:23 88° SE 18:51:58 24° NE
USA 229 3.6 18:40:37 10° SSW 18:47:29 88° SE 18:52:01 24° NE
FREGAT/IRIS 3.2 18:45:43 10° S 18:48:43 56° W 18:51:45 10° NNW
Iridium 4 Rocket 2.9 18:46:23 10° S 18:50:47 86° W 18:55:00 10° N
Cosmos 1627 Rocket 4.4 18:45:17 10° S 18:51:20 61° E 18:57:22 10° NNE
Cosmos 1655 Rocket 4.2 18:46:13 10° SSE 18:52:16 48° E 18:58:19 10° NNE
Spot 2 Rocket 3.3 18:47:49 10° SSE 18:52:48 68° ENE 18:57:49 10° N
Cosmos 1242 Rocket 2.7 18:50:07 10° NNW 18:53:36 69° W 18:57:03 10° S
Cosmos 1470 Rocket 3.4 18:51:03 10° S 18:55:24 86° E 18:57:06 37° N
Tiangong 1 3.1 18:52:56 10° SW 18:54:18 21° SSW 18:54:18 21° SSW
Cosmos 1455 4.1 18:52:21 10° NNW 18:55:45 31° W 18:59:09 10° SSW
CZ-4C R/B 3.8 18:50:13 10° NNW 18:55:55 27° NE 18:56:24 27° NE
Cosmos 1603 3.6 18:50:57 10° SSW 18:56:34 87° ESE 18:59:30 30° NNE
Aureole 1 Rocket 4.4 18:54:43 10° SSW 19:00:25 66° WNW 19:07:54 10° NNE
BREEZE-M DEB (TANK) 3.8 18:58:26 10° WNW 18:59:20 19° WNW 18:59:20 19° WNW
NOSS 3-1 (A) 4.2 18:56:13 10° S 19:00:05 31° SE 19:00:05 31° SE
FengYun 1-2 T 4.2 18:59:00 10° SSE 19:04:33 86° WSW 19:10:06 10° NNW
Coronas F rocket 4.5 19:07:25 10° WSW 19:08:10 14° W 19:08:10 14° W
S3M 4.2 19:06:39 10° N 19:12:05 51° NE 19:12:05 51° NE
Cosmos 2026 Rocket 3.8 19:10:10 10° S 19:16:22 85° E 19:22:30 10° N
BREEZE-M DEB (TANK) 4.1 19:05:29 10° WNW 19:20:20 58° N 19:21:04 53° NNE
Cosmos 1371 Rocket 4.4 19:17:26 10° NNW 19:21:19 50° N 19:21:19 50° N
Meteor 2-20 4.3 19:19:33 10° S 19:25:40 90° W 19:31:52 10° N
Cosmos 1680 Rocket 3.9 19:21:37 10° SSW 19:26:47 61° WNW 19:28:12 45° N
Cosmos 2369 Rocket 2.1 19:23:19 10° NNW 19:28:57 87° WNW 19:28:57 87° WNW
Cosmos 972 Rocket 4.3 19:24:18 10° NNW 19:29:36 74° WSW 19:31:24 45° S
SL-16 R/B 4.4 19:32:06 10° W 19:36:19 21° NW 19:40:33 10° N
Lacrosse 5 3.6 19:33:05 10° NW 19:35:34 24° NNW 19:35:34 24° NNW
NOSS 3-1 (C) 3.4 19:32:29 10° SSW 19:37:29 68° SSW 19:37:29 68° SSW
Cosmos 1867 4.2 19:33:10 10° NNW 19:37:08 49° NNW 19:37:08 49° NNW
Cosmos 1553 Rocket 4.0 19:33:56 10° N 19:39:22 70° N 19:39:22 70° N
ALOS 3.7 19:36:07 10° SSW 19:40:26 36° W 19:44:45 10° NNW
USA 215 3.6 19:44:05 46° S 19:45:47 59° SW 19:52:15 10° NW
ATLAS 3B R/B 4.1 19:43:39 10° NNW 19:47:34 25° N 19:47:34 25° N
CZ-3A R/B 4.5 19:51:05 10° WNW 19:55:15 32° SW 20:00:50 14° SSE
ATLAS 5 CENTAUR R/B 3.7 20:08:05 10° NW 20:11:05 32° NNW 20:11:05 32° NNW
Resurs 01 Rocket 4.3 20:12:21 10° SW 20:15:15 17° W 20:18:11 10° NW
Cosmos 1943 Rocket 4.3 20:24:31 10° NNW 20:26:07 19° NW 20:26:07 19° NW
CZ-4C R/B 4.1 20:38:18 10° NW 20:41:36 31° NNW 20:41:36 31° NNW
